WD6AWP Weather Reports


Display with metric or nautical units.
time (UTC)temp
F
wind
direction
speed
MPH
gust
MPH
rain 1hr
in
rain 24hr
in
rain mn
in
humidity
%
barometer
mb
20260906221535 76 330 5.0 13.0 0.00 0.47 0.47 86 1012.2
20260906220030 76 360 6.0 11.0 0.00 0.47 0.47 86 1012.0
20260906214533 75 36 6.0 11.0 0.00 0.47 0.47 87 1011.9
20260906213022 74 30 8.0 14.0 0.00 0.47 0.47 89 1011.8
20260906211516 73 52 4.0 14.0 0.00 0.47 0.47 91 1012.1
20260906210019 72 26 6.0 12.0 0.00 0.47 0.47 94 1012.5
20260906204519 71 20 5.0 13.0 0.00 0.47 0.47 95 1012.8
20260906203015 71 42 5.0 11.0 0.00 0.47 0.47 95 1012.9
20260906201529 70 5 5.0 11.0 0.00 0.47 0.47 95 1013.3
20260906200014 70 9 5.0 11.0 0.00 0.47 0.47 95 1013.6
20260906194513 70 27 7.0 12.0 0.01 0.47 0.47 95 1013.7
20260906193013 70 344 4.0 10.0 0.04 0.47 0.47 96 1013.9
20260906191512 70 36 5.0 10.0 0.06 0.47 0.47 96 1013.8
20260906190011 69 37 3.0 12.0 0.21 0.47 0.47 96 1014.1
20260906184509 68 26 4.0 12.0 0.24 0.46 0.46 96 1014.4
20260906183010 68 355 4.0 8.0 0.22 0.43 0.43 95 1014.9
20260906181520 68 11 3.0 12.0 0.22 0.41 0.41 95 1015.1
20260906180005 68 51 3.0 8.0 0.09 0.25 0.25 94 1015.3
20260906174502 68 9 2.0 13.0 0.07 0.22 0.22 94 1015.2
20260906173002 67 9 6.0 11.0 0.08 0.21 0.21 93 1015.2
20260906171602 67 346 3.0 8.0 0.10 0.19 0.19 93 1015.1
20260906170058 67 17 1.0 8.0 0.09 0.16 0.16 92 1014.6
20260906164553 68 351 4.0 11.0 0.12 0.15 0.15 91 1014.3
20260906163053 68 319 3.0 11.0 0.11 0.13 0.13 91 1014.3
20260906161550 69 302 3.0 8.0 0.07 0.09 0.09 89 1014.3
20260906160046 69 277 6.0 9.0 0.05 0.07 0.07 87 1014.4
20260906154543 70 302 1.0 4.0 0.01 0.03 0.03 85 1013.8
20260906153045 70 307 0.0 3.0 0.01 0.02 0.02 85 1013.4
20260906151539 70 9 0.0 0.0 0.01 0.02 0.02 84 1013.3
20260906150037 70 5 3.0 6.0 0.01 0.02 0.02 84 1013.2
20260906144538 71 39 1.0 5.0 0.01 0.02 0.02 86 1012.7
20260906143037 71 23 0.0 5.0 0.00 0.01 0.01 85 1013.0
20260906141539 71 349 3.0 6.0 0.00 0.01 0.01 85 1013.1
20260906140038 71 26 2.0 10.0 0.00 0.01 0.01 85 1012.8
20260906134534 71 336 5.0 10.0 0.00 0.01 0.01 86 1012.8
20260906133044 71 34 3.0 6.0 0.00 0.01 0.01 86 1012.5
20260906131532 71 324 0.0 5.0 0.00 0.01 0.01 86 1013.0
20260906130030 72 338 2.0 4.0 0.01 0.01 0.01 89 1012.7
20260906124527 72 355 0.0 4.0 0.01 0.01 0.01 90 1012.2
20260906123036 73 311 1.0 7.0 0.01 0.01 0.01 90 1011.9
20260906121525 73 284 1.0 5.0 0.01 0.01 0.01 90 1011.9
20260906120022 73 255 0.0 0.0 0.00 0.00 0.00 89 1011.7
20260906114523 73 259 0.0 0.0 0.00 0.00 0.00 89 1011.4
20260906113014 73 259 0.0 0.0 0.00 0.00 0.00 89 1011.5
20260906111509 73 259 0.0 0.0 0.00 0.00 0.00 88 1011.5
20260906110005 73 259 0.0 4.0 0.00 0.00 0.00 88 1011.5
20260906104500 73 259 0.0 6.0 0.00 0.00 0.00 88 1011.7
20260906103057 73 257 0.0 0.0 0.00 0.00 0.00 88 1011.7
20260906101554 72 256 2.0 6.0 0.00 0.00 0.00 89 1011.7
20260906100051 72 309 0.0 0.0 0.00 0.00 0.00 89 1011.7
20260906094550 71 309 0.0 0.0 0.00 0.00 0.00 89 1011.7
20260906093056 71 309 0.0 0.0 0.00 0.00 0.00 88 1011.8
20260906091546 70 310 0.0 0.0 0.00 0.00 0.00 88 1011.9
20260906090046 69 310 0.0 0.0 0.00 0.00 0.00 86 1011.8
20260906084548 70 309 0.0 0.0 0.00 0.00 0.00 86 1012.0
20260906083044 69 309 0.0 0.0 0.00 0.00 0.00 86 1011.9
20260906081550 69 310 0.0 0.0 0.00 0.00 0.00 85 1012.0
20260906080042 69 310 0.0 0.0 0.00 0.00 0.00 83 1012.1
20260906074540 70 309 0.0 0.0 0.00 0.00 0.00 82 1012.0
20260906073050 70 310 0.0 0.0 0.00 0.00 0.00 81 1012.0
20260906071535 70 309 0.0 0.0 0.00 0.00 0.00 81 1012.1
20260906070039 71 310 0.0 0.0 0.00 0.00 0.00 80 1012.2
20260906064532 71 309 0.0 0.0 0.00 0.00 0.00 79 1012.0
20260906063032 72 309 0.0 0.0 0.00 0.00 0.00 79 1011.9
20260906061531 72 309 0.0 0.0 0.00 0.00 0.00 78 1011.9
20260906060030 73 310 0.0 0.0 0.00 0.00 0.00 76 1012.1
20260906054530 74 310 0.0 0.0 0.00 0.00 0.00 75 1012.3
20260906053036 74 309 0.0 0.0 0.00 0.00 0.00 73 1012.4
20260906051529 75 309 0.0 2.0 0.00 0.00 0.00 72 1012.3
20260906050032 75 323 0.0 0.0 0.00 0.00 0.00 74 1012.3
20260906044530 75 303 1.0 5.0 0.00 0.00 0.00 76 1012.3
20260906043039 75 306 0.0 5.0 0.00 0.00 0.00 75 1012.2
20260906041527 75 304 0.0 0.0 0.00 0.00 0.00 75 1012.0
20260906040027 75 304 0.0 0.0 0.00 0.00 0.00 76 1011.9
20260906034528 74 304 0.0 0.0 0.00 0.00 0.00 77 1011.9
20260906033026 74 304 0.0 0.0 0.00 0.00 0.00 79 1011.8
20260906031525 75 304 0.0 0.0 0.00 0.00 0.00 83 1011.7
20260906030025 75 304 0.0 0.0 0.00 0.00 0.00 82 1011.5
20260906024525 75 304 0.0 5.0 0.00 0.00 0.00 82 1011.4
20260906023022 75 278 3.0 10.0 0.00 0.00 0.00 82 1011.5
20260906021522 75 277 7.0 11.0 0.00 0.00 0.00 81 1011.6
20260906020020 76 288 6.0 13.0 0.00 0.00 0.00 80 1011.5
20260906014528 76 268 7.0 12.0 0.00 0.00 0.00 80 1011.7
20260906013020 76 252 6.0 12.0 0.00 0.00 0.00 82 1011.6
20260906011520 77 264 7.0 13.0 0.00 0.00 0.00 81 1011.6
20260906010017 77 236 6.0 13.0 0.00 0.00 0.00 80 1011.6
20260906004619 78 235 4.0 14.0 0.00 0.00 0.00 79 1011.6
20260906003051 78 246 5.0 11.0 0.00 0.00 0.00 77 1011.6
20260906001514 79 250 3.0 11.0 0.00 0.00 0.00 75 1011.6
20260906000014 81 256 5.0 10.0 0.00 0.00 0.00 71 1011.6
20260905234512 80 304 7.0 12.0 0.00 0.00 0.00 70 1011.5
20260905233013 80 286 7.0 12.0 0.00 0.00 0.00 68 1011.7
20260905231514 81 242 7.0 12.0 0.00 0.00 0.00 66 1011.6
20260905230008 81 249 6.0 11.0 0.00 0.00 0.00 67 1011.7
20260905224507 81 280 7.0 12.0 0.00 0.00 0.00 66 1011.9
20260905223006 82 265 6.0 12.0 0.00 0.00 0.00 68 1012.1